Showing default

ORBCOMM FM 116, 41189

Orbit data source: Space-Track

ORBCOMM FM 116, 41189 is a payload satellite owned by Orbcomm (US) in LEO that was launched on Tue, 22 Dec 2015 UTC via an FALCON 9 launch vehicle from the Air Force Eastern Test Range (AFETR). Payload-class satellites include a variety of spacecraft equipped with specific instruments for various scientific and technological missions. These include communications satellites like Starlink; space stations such as the ISS; scientific satellites like the Hubble; Earth observation satellites from companies like Planet Labs, Umbra, and HawkEye 360; GPS; miniature CubeSats for education and research; and military/defense satellites.

Loading next visibility...
Identifier
41189, 2015-081L
Orbit
LEO
Last TLE update
7 hours ago
Origin
Manufacturer
SNC Louisville
Mission
Operational Commercial Communications
Bus & Motor
SN-100A, Unknown motor
Mass
172 kg wet, 158 kg dry
Launch date (UTC)
2015-12-22 (10 years ago)
Launch vehicle
FALCON 9
Launch site
Air Force Eastern Test Range (AFETR)
Object type
Payload
Rocket body
Debris
Shape & HBR
Box + 1 Pan + 1 Ant, 13 m
Radar Cross Section
2.222 m², Medium (>0.1 m² and < 1m²)

Expand to show TLE details & history

TLE from 7 hours ago
0 ORBCOMM FM 116
1 41189U 15081L   25182.58270111  .00000291  00000-0  98940-4 0  9997
2 41189  47.0015 127.5894 0002488 241.5167 118.5468 14.58186850507759
Epoch: 2025-07-01T13:59Z
TLE epoch observation values (Epoch: 2025-07-01T13:59:05.375Z)
Latitude
-0.00004°
Longitude
-2.05911°
Altitude
700.092 km
Speed
7.507 km/s
True Right ascension
08h 30m 21s
True Declination
0° 00' 00"
Sunlit
Object was in daylight at epoch
Visualization orbit readout
Latitude
20.56594°
Longitude
16.9839°
Altitude
700.335 km
Speed
7.508 km/s
Apparent Right ascension
12h 29m 10s
Apparent Declination
-30° 26' 48"
Sunlit
Object is in daylight
Visualization observer readout
Local Sidereal Time
08:21:42
Azimuth
130.509° SE
Elevation
-0.765°
Doppler factor
1
Orbital elements
Apogee altitude
702.03 km
Perigee altitude
698.508 km
Semi-major axis
7,078.406 km
Eccentricity
0.00025
Inclination
47.0015°
RAAN
127.5894°
Arg. of periapsis
241.5167°
True anomaly
Unknown
Mean anomaly
118.5468°
Eccentric anomaly
Unknown
Mean motion
3.64452 °/min
Orbital period
98.78 mins
BSTAR
0.00009894
Loading maneuver chart data...
Loading SW <> Apogee altitude chart data...
Loading historical data...
Loading historical data...
Loading historical data...
Loading historical data...
Loading historical data...
Loading historical data...
Loading historical data...

ORBCOMM FM 116 Visibility forecast

Observer location: undefined°, undefined°

Span
Click to sort rows by Start time (UTC) header in descending order
Start Az.
Max El. time (UTC)
Max El. Az.
Max El.
End time (UTC)
End Az.
7 mins2025-07-01 22:21:34.756Z181.065° SSW2025-07-01 22:24:34.756Z140.433° SSE20.451°2025-07-01 22:28:34.756Z86.277° E
8 mins2025-07-02 00:04:34.756Z241.766° WSW2025-07-02 00:07:34.756Z248.993° W44.325°2025-07-02 00:12:34.756Z61.753° ENE
7 mins2025-07-02 01:48:34.756Z289.329° WNW2025-07-02 01:51:34.756Z342.255° N32.297°2025-07-02 01:55:34.756Z55.26° ENE
8 mins2025-07-02 03:32:34.756Z306.599° NW2025-07-02 03:36:34.756Z25.41° NE32.802°2025-07-02 03:40:34.756Z80.763° E
8 mins2025-07-02 05:16:34.756Z296.225° NW2025-07-02 05:19:34.756Z274.05° WNW43.921°2025-07-02 05:24:34.756Z123.196° SE
5 mins2025-07-02 07:00:34.756Z259.726° W2025-07-02 07:02:34.756Z232.159° WSW17.86°2025-07-02 07:05:34.756Z189.684° SSW
|